DW6743 Weather Reports


Display with metric or nautical units.
time (UTC)temp
F
wind
direction
speed
MPH
gust
MPH
rain 1hr
in
rain 24hr
in
rain mn
in
humidity
%
barometer
mb
20260901103804 64 275 9.0 12.0 0.00 2.46 0.09 79 1009.8
20260901103304 64 266 10.0 12.0 0.00 2.46 0.09 80 1009.8
20260901103105 64 277 7.0 12.0 0.00 0.37 0.09 79 1009.7
20260901101804 64 302 10.0 12.0 0.00 2.36 0.09 80 1009.7
20260901101609 63 285 7.0 13.0 0.00 0.37 0.09 80 1009.5
20260901101304 64 276 9.0 13.0 0.00 2.36 0.09 80 1009.6
20260901100804 64 279 7.0 13.0 0.00 2.36 0.09 80 1009.5
20260901100111 64 278 8.0 13.0 0.00 0.37 0.09 80 1009.4
20260901094804 64 307 8.0 12.0 0.00 2.36 0.09 81 1009.3
20260901094603 63 318 8.0 12.0 0.00 0.37 0.09 81 1009.3
20260901093803 64 290 9.0 12.0 0.00 2.36 0.09 81 1009.1
20260901093305 64 289 9.0 12.0 0.00 2.36 0.09 81 1009.1
20260901093107 64 283 7.0 11.0 0.00 0.37 0.09 80 1009.0
20260901091804 64 291 7.0 10.0 0.00 2.36 0.09 81 1008.9
20260901091607 63 310 7.0 10.0 0.00 0.37 0.09 80 1008.8
20260901091304 64 292 7.0 10.0 0.00 2.36 0.09 81 1008.8
20260901090804 64 283 7.0 10.0 0.00 2.36 0.09 82 1008.7
20260901090304 64 286 9.0 12.0 0.00 2.36 0.09 82 1008.8
20260901090106 63 281 7.0 11.0 0.00 0.37 0.09 82 1008.7
20260901084806 63 310 6.0 12.0 0.00 2.36 0.09 83 1008.8
20260901084626 63 293 8.0 11.0 0.00 0.37 0.09 82 1008.6
20260901084304 63 301 8.0 12.0 0.00 2.36 0.09 83 1008.8
20260901083107 63 305 10.0 13.0 0.00 0.37 0.09 83 1008.8
20260901081803 63 285 7.0 12.0 0.00 2.36 0.09 84 1008.7
20260901081608 62 310 9.0 12.0 0.00 0.37 0.09 83 1008.6
20260901081304 63 299 10.0 12.0 0.00 2.36 0.09 84 1008.6
20260901080804 63 295 8.0 12.0 0.00 2.36 0.09 84 1008.6
20260901080304 63 283 9.0 12.0 0.09 2.36 0.09 85 1008.5
20260901080115 63 319 7.0 10.0 0.00 0.37 0.09 85 1008.4
20260901074804 62 299 5.0 12.0 0.00 2.36 0.09 86 1008.5
20260901074633 62 305 8.0 13.0 0.00 0.37 0.09 85 1008.4
20260901074304 62 308 10.0 13.0 0.00 2.36 0.09 86 1008.4
20260901073804 62 322 7.0 12.0 0.00 2.36 0.09 86 1008.4
20260901073304 62 307 8.0 10.0 0.00 2.36 0.09 86 1008.4
20260901073106 61 305 7.0 10.0 0.00 0.37 0.09 86 1008.4
20260901071608 61 326 5.0 10.0 0.00 0.37 0.09 86 1008.2
20260901070804 62 309 7.0 10.0 0.00 2.17 0.09 87 1008.3
20260901070304 62 310 8.0 12.0 0.00 2.08 0.00 87 1008.3
20260901070107 61 327 8.0 12.0 0.00 0.37 0.09 87 1008.3
20260901064804 62 304 7.0 12.0 0.00 2.08 0.09 88 1008.1
20260901064607 61 310 7.0 12.0 0.00 0.37 0.09 87 1008.0
20260901063803 61 305 9.0 12.0 0.00 2.08 0.09 88 1008.0
20260901063304 61 303 9.0 12.0 0.00 2.08 0.09 88 1007.9
20260901063106 61 296 9.0 11.0 0.00 0.37 0.09 87 1007.9
20260901061611 61 305 9.0 12.0 0.00 0.37 0.09 87 1007.8
20260901061304 61 302 7.0 12.0 0.00 2.08 0.09 88 1007.8
20260901060804 61 297 8.0 12.0 0.00 2.08 0.09 88 1007.8
20260901060304 61 303 7.0 12.0 0.00 2.08 0.09 88 1007.7
20260901060111 60 305 8.0 12.0 0.00 0.37 0.09 88 1007.7
20260901054804 61 315 7.0 12.0 0.00 2.08 0.09 88 1007.8
20260901054606 60 292 9.0 12.0 0.00 0.37 0.09 88 1007.7
20260901054304 61 305 9.0 12.0 0.00 2.08 0.09 88 1007.7
20260901053803 61 304 9.0 12.0 0.00 2.08 0.09 88 1007.6
20260901053305 61 306 7.0 12.0 0.00 2.08 0.09 88 1007.7
20260901053107 60 305 8.0 12.0 0.00 0.37 0.09 88 1007.5
20260901051804 61 309 7.0 9.0 0.00 2.08 0.09 88 1007.5
20260901051614 60 310 5.0 10.0 0.00 0.37 0.09 88 1007.5
20260901051304 61 315 6.0 10.0 0.00 2.08 0.09 88 1007.5
20260901050805 61 331 6.0 9.0 0.00 1.98 0.09 88 1007.5
20260901050304 61 328 6.0 9.0 0.00 1.98 0.09 88 1007.5
20260901050108 60 330 5.0 9.0 0.00 0.37 0.09 88 1007.4
20260901044804 61 328 6.0 9.0 0.00 1.98 0.09 88 1007.5
20260901044607 60 323 5.0 9.0 0.00 0.37 0.09 88 1007.3
20260901044303 61 322 6.0 9.0 0.00 1.98 0.09 88 1007.3
20260901043803 61 330 5.0 8.0 0.00 1.98 0.09 88 1007.2
20260901043305 61 332 6.0 9.0 0.00 1.98 0.09 88 1007.2
20260901043109 60 333 5.0 9.0 0.00 0.37 0.09 88 1007.2
20260901041621 60 345 3.0 6.0 0.00 0.37 0.09 88 1007.1
20260901040804 61 345 5.0 6.0 0.00 1.98 0.09 88 1007.1
20260901040304 61 345 5.0 8.0 0.00 1.98 0.09 88 1007.0
20260901040139 60 345 4.0 8.0 0.00 0.37 0.09 88 1007.1
20260901034804 61 339 6.0 8.0 0.00 1.98 0.09 88 1007.0
20260901034613 60 340 5.0 10.0 0.00 0.37 0.09 88 1006.9
20260901034304 61 338 6.0 7.0 0.00 1.98 0.09 88 1006.9
20260901033804 61 347 6.0 10.0 0.00 1.98 0.09 88 1007.0
20260901033304 61 341 6.0 9.0 0.00 1.98 0.09 88 1007.0
20260901033103 61 331 5.0 9.0 0.00 0.37 0.09 88 1006.8
20260901031804 61 354 4.0 6.0 0.00 1.98 0.09 88 1006.9
20260901031604 61 359 4.0 7.0 0.00 0.37 0.09 88 1006.8
20260901030304 61 2 6.0 9.0 0.01 1.98 0.09 88 1006.8
20260901030112 61 2 6.0 9.0 0.00 0.37 0.09 88 1006.8
20260901024804 61 357 4.0 8.0 0.01 1.98 0.09 88 1006.8
20260901024608 61 8 5.0 8.0 0.00 0.37 0.09 88 1006.7
20260901024304 61 5 5.0 8.0 0.01 1.98 0.09 88 1006.7
20260901023304 61 7 6.0 12.0 0.01 1.98 0.09 88 1006.6
20260901023107 61 339 6.0 11.0 0.00 0.37 0.09 88 1006.5
20260901021804 61 357 7.0 10.0 0.01 1.98 0.09 88 1006.5
20260901021603 61 17 6.0 11.0 0.00 0.37 0.09 88 1006.4
20260901021304 61 352 8.0 12.0 0.02 1.98 0.09 88 1006.4
20260901020804 61 0 6.0 10.0 0.02 1.98 0.09 88 1006.5
20260901020304 61 0 6.0 10.0 0.02 1.98 0.09 88 1006.4
20260901020111 60 351 5.0 10.0 0.01 0.36 0.08 88 1006.5
20260901014804 61 2 2.0 3.0 0.02 1.98 0.09 88 1006.4
20260901014609 60 2 2.0 6.0 0.02 0.36 0.08 88 1006.4
20260901013804 61 358 2.0 6.0 0.03 1.98 0.09 88 1006.4
20260901013107 60 296 0.0 4.0 0.06 0.36 0.08 88 1006.3
20260901011603 61 296 2.0 6.0 0.08 0.36 0.08 88 1006.3
20260901011304 61 296 3.0 5.0 0.08 1.97 0.08 88 1006.2
20260901010303 61 296 6.0 8.0 0.07 1.96 0.07 88 1006.3
20260901010116 61 296 4.0 8.0 0.07 0.34 0.07 88 1006.3
20260901004804 62 270 3.0 3.0 0.06 1.95 0.06 88 1006.4
20260901004610 61 270 2.0 6.0 0.06 0.33 0.06 88 1006.3
20260901004304 62 270 3.0 3.0 0.06 1.95 0.06 88 1006.3
20260901003804 62 270 5.0 6.0 0.06 1.94 0.06 88 1006.2
20260901003304 62 283 6.0 12.0 0.03 1.92 0.03 88 1006.3
20260901003107 61 282 7.0 11.0 0.02 0.29 0.02 88 1006.2
20260901001804 61 280 6.0 9.0 0.00 1.89 0.00 88 1006.3
20260901001606 61 272 5.0 9.0 0.00 0.27 0.00 88 1006.2
20260901001305 61 276 5.0 9.0 0.00 1.89 0.00 88 1006.2
20260901000804 60 272 5.0 8.0 0.00 1.89 0.00 88 1006.2
20260901000111 60 273 5.0 9.0 0.00 0.27 0.00 88 1006.2
20260831234804 60 276 6.0 9.0 0.00 1.89 0.00 88 1006.3
20260831234606 59 268 5.0 9.0 0.00 0.27 0.00 88 1006.2
20260831234304 60 277 6.0 8.0 0.00 1.89 0.00 88 1006.2
20260831233804 60 275 4.0 6.0 0.00 1.89 0.00 88 1006.3
20260831233306 60 275 5.0 8.0 0.00 1.89 0.00 88 1006.3
20260831233118 59 275 5.0 8.0 0.00 0.27 0.00 88 1006.2
20260831231804 59 239 3.0 5.0 0.00 1.89 0.00 88 1006.3
20260831231608 59 274 2.0 6.0 0.00 0.27 0.00 88 1006.3
20260831231304 59 258 2.0 6.0 0.00 1.89 0.00 88 1006.3
20260831230804 59 274 3.0 6.0 0.00 1.89 0.00 88 1006.3
20260831230115 59 272 4.0 6.0 0.00 0.27 0.00 88 1006.3
20260831224803 60 242 2.0 3.0 0.00 1.89 0.00 88 1006.3
20260831224606 59 242 2.0 6.0 0.00 0.27 0.00 88 1006.2
20260831224304 60 237 2.0 3.0 0.00 1.89 0.00 88 1006.2
20260831223304 60 237 2.0 7.0 0.00 1.89 0.00 88 1006.4
20260831223111 59 237 1.0 4.0 0.00 0.27 0.00 87 1006.2
20260831221608 59 220 4.0 7.0 0.00 0.27 0.00 87 1006.2
20260831221304 60 220 5.0 7.0 0.00 1.89 0.00 88 1006.2
20260831220839 60 208 5.0 7.0 0.00 1.89 0.00 88 1006.2
20260831220304 60 204 6.0 8.0 0.28 1.89 0.00 88 1006.2
20260831220106 59 216 6.0 8.0 0.00 0.27 0.00 87 1006.1
20260831214804 60 160 3.0 3.0 0.00 1.89 0.28 88 1006.2
20260831214611 59 160 3.0 5.0 0.00 0.27 0.27 87 1006.1
20260831213305 60 160 3.0 5.0 0.00 1.89 0.28 88 1006.1
20260831213109 59 160 3.0 5.0 0.00 0.27 0.27 87 1005.9
20260831211804 60 160 3.0 5.0 0.00 1.89 0.28 88 1006.0
20260831211613 59 160 3.0 8.0 0.00 0.27 0.27 87 1006.0
20260831211303 60 160 5.0 7.0 0.00 1.89 0.28 88 1006.0
20260831210304 60 160 6.0 8.0 0.00 1.61 0.28 88 1006.0
20260831210104 59 160 6.0 8.0 0.00 0.27 0.27 87 1005.9
20260831204609 59 160 5.0 7.0 0.00 0.27 0.27 87 1006.0
20260831203804 60 160 5.0 7.0 0.00 1.34 0.28 88 1006.1
20260831203304 60 160 5.0 8.0 0.00 1.34 0.28 88 1006.0
20260831203116 59 160 5.0 8.0 0.00 0.27 0.27 87 1006.0
20260831201804 60 160 6.0 7.0 0.00 1.34 0.28 88 1006.1
20260831201607 59 160 4.0 6.0 0.00 0.27 0.27 87 1006.1
20260831201304 60 160 5.0 6.0 0.00 1.34 0.28 88 1006.1
20260831200804 60 160 5.0 6.0 0.00 1.34 0.28 88 1006.1
20260831200304 60 160 4.0 7.0 0.00 1.34 0.28 88 1006.1
20260831200126 59 160 4.0 7.0 0.00 0.27 0.27 87 1006.0
20260831194804 60 160 5.0 6.0 0.00 1.34 0.28 88 1006.1
20260831194644 60 160 5.0 6.0 0.00 0.27 0.27 87 1006.0
20260831194304 60 160 5.0 6.0 0.00 1.34 0.28 88 1006.1
20260831193804 60 160 3.0 5.0 0.00 1.34 0.28 88 1006.0
20260831193304 60 160 5.0 7.0 0.01 1.34 0.28 88 1006.0
20260831193106 60 160 4.0 7.0 0.01 0.27 0.27 87 1005.9
20260831191606 60 160 4.0 6.0 0.03 0.27 0.27 87 1005.8
20260831190110 60 160 6.0 8.0 0.03 0.27 0.27 87 1005.7
20260831184804 60 160 5.0 6.0 0.03 1.06 0.28 88 1005.7
20260831184607 60 160 4.0 7.0 0.03 0.27 0.27 87 1005.6
20260831184304 60 160 5.0 7.0 0.03 1.06 0.28 88 1005.6
20260831183804 60 160 5.0 6.0 0.03 1.06 0.28 88 1005.5
20260831183304 60 160 5.0 7.0 0.02 1.06 0.27 88 1005.6
20260831183113 60 160 4.0 7.0 0.01 0.25 0.25 87 1005.6
20260831181804 60 160 6.0 7.0 0.00 1.03 0.24 88 1005.4
20260831181611 60 160 5.0 7.0 0.00 0.24 0.24 87 1005.4
20260831180804 60 160 5.0 6.0 0.00 1.03 0.24 88 1005.5
20260831180304 60 160 5.0 7.0 0.00 1.03 0.24 88 1005.5
20260831180119 60 160 5.0 7.0 0.00 0.24 0.24 87 1005.4
20260831174803 60 160 6.0 8.0 0.00 1.03 0.24 87 1005.5
20260831174606 60 160 5.0 8.0 0.00 0.24 0.24 87 1005.5
20260831174304 60 179 5.0 7.0 0.00 1.03 0.24 87 1005.4
20260831173804 60 179 5.0 6.0 0.00 1.03 0.24 87 1005.4
20260831173304 60 179 6.0 7.0 0.00 1.03 0.24 87 1005.4
20260831173105 60 179 5.0 8.0 0.00 0.24 0.24 87 1005.3
20260831171604 60 179 5.0 10.0 0.00 0.24 0.24 87 1005.3
20260831170804 61 179 7.0 10.0 0.00 0.79 0.24 88 1005.4
20260831170107 60 170 6.0 9.0 0.00 0.24 0.24 87 1005.2
20260831164608 60 183 5.0 9.0 0.00 0.24 0.24 87 1005.3
20260831164303 61 179 6.0 9.0 0.00 0.95 0.24 88 1005.4
20260831163804 61 191 5.0 8.0 0.01 0.95 0.24 87 1005.3
20260831163304 61 191 7.0 10.0 0.02 1.12 0.24 87 1005.4
20260831163106 60 191 7.0 9.0 0.02 0.24 0.24 87 1005.3
20260831161804 61 187 7.0 10.0 0.05 1.12 0.24 87 1005.4
20260831161612 61 179 5.0 9.0 0.04 0.24 0.24 87 1005.4
20260831161304 61 179 6.0 7.0 0.06 1.28 0.24 87 1005.5
20260831160804 61 179 6.0 7.0 0.06 1.28 0.24 87 1005.4
20260831160304 61 179 5.0 8.0 0.08 1.28 0.24 87 1005.5
20260831160109 61 179 4.0 8.0 0.07 0.24 0.24 87 1005.5
20260831154633 61 164 6.0 9.0 0.11 0.31 0.24 87 1005.4
20260831153303 62 143 5.0 10.0 0.13 1.29 0.23 87 1005.6
20260831153111 61 143 7.0 10.0 0.11 0.29 0.22 87 1005.5
20260831151620 61 150 6.0 11.0 0.09 0.26 0.19 87 1005.5
20260831151304 62 152 6.0 10.0 0.09 0.90 0.19 87 1005.6
20260831150803 62 163 7.0 12.0 0.08 0.89 0.18 87 1005.5
20260831150304 62 153 9.0 12.0 0.06 0.87 0.17 87 1005.5
20260831150107 61 157 8.0 11.0 0.06 0.23 0.16 86 1005.4
20260831144804 62 160 9.0 13.0 0.04 0.72 0.14 87 1005.7
20260831144606 62 162 9.0 15.0 0.03 0.22 0.13 87 1005.6
20260831143804 62 155 9.0 15.0 0.00 0.68 0.10 87 1005.5
20260831143304 62 149 12.0 15.0 0.02 0.68 0.10 87 1005.5
20260831143104 62 156 11.0 15.0 0.01 0.18 0.10 86 1005.5
20260831141803 63 157 8.0 13.0 0.04 0.68 0.10 87 1005.6
20260831141605 62 161 6.0 10.0 0.03 0.18 0.10 86 1005.6
20260831140304 62 136 7.0 12.0 0.09 0.69 0.10 87 1005.6
20260831140106 61 137 7.0 12.0 0.09 0.18 0.10 86 1005.6
20260831134804 62 142 6.0 9.0 0.10 0.69 0.10 86 1005.8
20260831134610 61 140 6.0 12.0 0.10 0.23 0.10 86 1005.7
20260831134304 62 150 8.0 12.0 0.10 0.70 0.10 86 1005.8
20260831133120 61 168 8.0 14.0 0.08 0.22 0.08 85 1005.8
20260831131804 62 159 9.0 14.0 0.06 0.72 0.06 85 1006.0
20260831131615 62 177 10.0 14.0 0.06 0.19 0.06 85 1006.0
20260831131304 63 163 10.0 14.0 0.06 0.72 0.06 85 1006.0
20260831130804 63 163 8.0 13.0 0.03 0.69 0.03 85 1006.0
20260831130304 63 165 8.0 16.0 0.02 0.68 0.02 84 1006.0
20260831130114 62 175 10.0 18.0 0.00 0.14 0.00 83 1005.9
20260831124804 64 171 14.0 18.0 0.00 0.66 0.00 82 1006.1
20260831124610 64 183 11.0 21.0 0.00 0.15 0.00 81 1006.0
20260831123804 65 171 11.0 17.0 0.00 0.66 0.00 79 1006.1
20260831123108 65 162 12.0 18.0 0.00 0.15 0.00 78 1006.0
20260831121804 66 202 14.0 20.0 0.00 0.68 0.00 76 1005.9
20260831121609 66 187 12.0 20.0 0.00 0.15 0.00 76 1005.9
20260831121304 67 182 11.0 17.0 0.00 0.69 0.00 76 1006.0
20260831120304 67 205 14.0 21.0 0.00 0.69 0.00 75 1006.0
20260831120114 67 190 15.0 21.0 0.00 0.15 0.00 75 1005.9
20260831114606 67 223 12.0 17.0 0.00 0.16 0.00 73 1005.9
20260831114304 67 215 12.0 15.0 0.00 0.69 0.00 74 1005.9
20260831113803 67 215 9.0 12.0 0.00 0.69 0.00 74 1005.9
20260831113105 67 214 13.0 17.0 0.00 0.16 0.00 75 1005.7
20260831111804 67 208 9.0 14.0 0.00 0.69 0.00 78 1006.0
20260831111606 66 221 10.0 14.0 0.00 0.16 0.00 78 1005.9
20260831111304 66 217 11.0 14.0 0.00 0.69 0.00 78 1006.1
20260831110304 66 226 12.0 16.0 0.00 0.69 0.00 80 1006.1
20260831110113 65 216 11.0 16.0 0.00 0.16 0.00 79 1006.0
20260831104612 65 262 11.0 16.0 0.00 0.16 0.00 80 1006.2
20260831104304 66 239 12.0 16.0 0.00 0.69 0.00 81 1006.1